Cheyenne — WDE9553 — position and weather

sailwx.info

Track history (hours):
 
Tides and Currents Weather Stations Pressure Air Temp Water Temp Dewpoint Dewpoint Depression Visibility Wind Speed Wind Dir Waves Ship Positions

Cheyenne

Owner: DMC MARINE, LLC, HILLSIDE, NJ. More information available from US FCC via Universal Licensing System and Coast Guard Vessel Documentation Center.

Last reported at 2014-Nov-22 04:33 UTC. Time now 2014-Nov-22 05:11 UTC.
Position N 40°41' W 074°05'.

Length 29 m; draft 4 m.

Type: Towing. MMSI: 367418570.

Date/timePositionNaut miles runAvg speedWind from/ knotsBaromVisibWave heightAir tempDewpointWater temp
2014-Nov-22 04:33N 40°41' W 074°05'0 0.0
2014-Nov-22 03:33N 40°41' W 074°05'0 0.0
2014-Nov-22 02:33N 40°41' W 074°05'2 2.1
2014-Nov-22 01:33N 40°42' W 074°02'3 3.4
2014-Nov-22 00:33N 40°44' W 073°58'1 1.2
2014-Nov-21 23:33N 40°44' W 073°57'2 2.5
2014-Nov-21 22:33N 40°42' W 073°59'4 4.4
2014-Nov-21 21:33N 40°41' W 074°05'0 0.0
2014-Nov-21 20:33N 40°41' W 074°05'0 0.1
2014-Nov-21 19:33N 40°41' W 074°05'0 0.0
2014-Nov-21 18:33N 40°41' W 074°05'0 0.0
2014-Nov-21 17:33N 40°41' W 074°05'0 0.0
2014-Nov-21 16:33N 40°41' W 074°05'0 0.0
2014-Nov-21 15:33N 40°41' W 074°05'0 0.0
2014-Nov-21 14:33N 40°41' W 074°05'0 0.0
2014-Nov-21 13:33N 40°41' W 074°05'0 0.0
2014-Nov-21 12:33N 40°41' W 074°05'5 4.1
2014-Nov-21 11:27N 40°38' W 074°09'1 1.3
2014-Nov-21 10:33N 40°39' W 074°08'4 3.5
2014-Nov-21 09:33N 40°41' W 074°05'0 0.0
2014-Nov-21 08:29N 40°41' W 074°05'0 0.0
2014-Nov-21 07:33N 40°41' W 074°05'0 0.0
2014-Nov-21 06:32N 40°41' W 074°05'0 0.0
2014-Nov-21 05:29N 40°41' W 074°05'0 0.0
2014-Nov-21 04:14N 40°41' W 074°05'0 0.0
2014-Nov-21 03:33N 40°41' W 074°05'0 0.1
2014-Nov-21 02:33N 40°41' W 074°04'3 2.9
2014-Nov-21 01:33N 40°41' W 074°01'4 3.8
2014-Nov-21 00:33N 40°44' W 073°58'1 0.4
2014-Nov-20 22:33N 40°44' W 073°57'0 0.0
2014-Nov-20 21:33N 40°44' W 073°57'0 0.1
2014-Nov-20 20:25N 40°44' W 073°57'5 5.8
2014-Nov-20 19:33N 40°41' W 074°02'2 2.2
2014-Nov-20 18:32N 40°41' W 074°05'0 0.0
2014-Nov-20 17:33N 40°41' W 074°05'0 0.0
2014-Nov-20 16:31N 40°41' W 074°05'0 0.1
2014-Nov-20 15:25N 40°41' W 074°05'0 0.0
2014-Nov-20 14:08N 40°41' W 074°05'0 0.0
2014-Nov-20 13:05N 40°41' W 074°05'0 0.0
2014-Nov-20 12:33N 40°41' W 074°05'0 0.0
2014-Nov-20 11:33N 40°41' W 074°05'0 0.0
2014-Nov-20 10:33N 40°41' W 074°05'0 0.0
2014-Nov-20 09:33N 40°41' W 074°05'0 0.0
2014-Nov-20 08:31N 40°41' W 074°05'0 0.0
2014-Nov-20 07:08N 40°41' W 074°05'0 0.0
2014-Nov-20 06:31N 40°41' W 074°05'0 0.0
2014-Nov-20 05:29N 40°41' W 074°05'0 0.0
2014-Nov-20 04:24N 40°41' W 074°05'0 0.0
2014-Nov-20 03:33N 40°41' W 074°05'0 0.0
2014-Nov-20 02:33N 40°41' W 074°05'0 0.0
2014-Nov-20 01:32N 40°41' W 074°05'0 0.0
2014-Nov-19 23:33N 40°41' W 074°05'0 0.0
2014-Nov-19 20:33N 40°41' W 074°05'0 0.0
2014-Nov-19 19:33N 40°41' W 074°05'0 0.0
2014-Nov-19 18:33N 40°41' W 074°05'0 0.0
2014-Nov-19 17:33N 40°41' W 074°05'0 0.0
2014-Nov-19 15:31N 40°41' W 074°05'0 0.0
2014-Nov-19 14:33N 40°41' W 074°05'0 0.0
2014-Nov-19 13:33N 40°41' W 074°05'0 0.0
2014-Nov-19 12:33N 40°41' W 074°05'0 0.0
2014-Nov-19 11:33N 40°41' W 074°05'0 0.0
2014-Nov-19 10:11N 40°41' W 074°05'0 0.0
2014-Nov-19 07:30N 40°41' W 074°05'0 0.4
2014-Nov-19 06:33N 40°41' W 074°04'5 0.1
2014-Nov-17 04:33N 40°45' W 074°01'8 7.8
2014-Nov-17 03:30N 40°39' W 074°07'3 1.0
2014-Nov-17 00:24N 40°39' W 074°11'1 1.7
2014-Nov-16 23:30N 40°39' W 074°09'4 3.8
2014-Nov-16 22:33N 40°39' W 074°05'4 4.0
2014-Nov-16 21:33N 40°43' W 074°02'4 3.9
2014-Nov-16 20:33N 40°46' W 074°00'3 0.1
2014-Nov-15 04:27N 40°49' W 073°58'7 8.2
2014-Nov-15 03:33N 40°42' W 074°01'3 2.7
2014-Nov-15 02:33N 40°41' W 074°05'0 0.0
2014-Nov-15 01:33N 40°41' W 074°05'0 0.0
2014-Nov-15 00:31N 40°41' W 074°05'0 0.0
2014-Nov-14 23:32N 40°41' W 074°05'0 0.0
2014-Nov-14 22:32N 40°41' W 074°05'0 0.0
2014-Nov-14 21:33N 40°41' W 074°05'2 1.5
2014-Nov-14 20:33N 40°41' W 074°03'4 4.3
2014-Nov-14 19:33N 40°43' W 073°58'1 1.4
2014-Nov-14 18:33N 40°44' W 073°57'2 1.9
2014-Nov-14 17:33N 40°43' W 073°58'5 5.0
2014-Nov-14 16:33N 40°41' W 074°05'0 0.0
2014-Nov-14 15:32N 40°41' W 074°05'0 0.0
2014-Nov-14 14:33N 40°41' W 074°05'6 3.1
2014-Nov-14 12:32N 40°38' W 074°12'0 0.0
2014-Nov-14 11:28N 40°38' W 074°12'4 4.6
2014-Nov-14 10:33N 40°39' W 074°06'3 2.6
2014-Nov-14 09:33N 40°41' W 074°05'0 0.0
2014-Nov-14 06:28N 40°41' W 074°05'0 0.0
2014-Nov-14 04:33N 40°41' W 074°05'0 0.0
2014-Nov-14 03:30N 40°41' W 074°05'0 0.0
2014-Nov-14 02:33N 40°41' W 074°05'0 0.0
2014-Nov-14 01:33N 40°41' W 074°05'0 0.0
2014-Nov-14 00:33N 40°41' W 074°05'0 0.0
2014-Nov-13 23:33N 40°41' W 074°05'0 0.0
2014-Nov-13 22:33N 40°41' W 074°05'0 0.0
2014-Nov-13 21:30N 40°41' W 074°05'0 0.0
2014-Nov-13 18:23N 40°41' W 074°05'3 4.2
2014-Nov-13 17:33N 40°40' W 074°00'1 0.6
2014-Nov-13 16:33N 40°40' W 073°60'2 2.2
2014-Nov-13 15:33N 40°40' W 074°03'2 1.7
2014-Nov-13 14:33N 40°41' W 074°05'0 0.0
2014-Nov-13 13:33N 40°41' W 074°05'0 0.0
2014-Nov-13 12:33N 40°41' W 074°05'0 0.0
2014-Nov-13 11:33N 40°41' W 074°05'0 0.0
2014-Nov-13 10:33N 40°41' W 074°05'0 0.0
2014-Nov-13 09:33N 40°41' W 074°05'0 0.0
2014-Nov-13 08:33N 40°41' W 074°05'0 0.0
2014-Nov-13 07:33N 40°41' W 074°05'0 0.0
2014-Nov-13 06:33N 40°41' W 074°05'0 0.0
2014-Nov-13 05:33N 40°41' W 074°05'0 0.0
2014-Nov-13 04:33N 40°41' W 074°05'0 0.0
2014-Nov-13 03:33N 40°41' W 074°05'0 0.4
2014-Nov-13 02:33N 40°41' W 074°04'4 3.7
2014-Nov-13 01:27N 40°39' W 074°09'2 1.9
2014-Nov-13 00:33N 40°41' W 074°08'3 3.3
2014-Nov-12 23:33N 40°39' W 074°04'2 1.8
2014-Nov-12 22:33N 40°41' W 074°05'0 0.0
2014-Nov-12 21:33N 40°41' W 074°05'2 1.6
2014-Nov-12 20:33N 40°41' W 074°02'6 6.2
2014-Nov-12 19:33N 40°47' W 073°60'10 3.2
2014-Nov-12 16:31N 40°56' W 073°55'5 4.6
2014-Nov-12 15:28N 41°01' W 073°53'18 5.8
2014-Nov-12 12:23N 41°18' W 073°58'7 6.0
2014-Nov-12 11:12N 41°25' W 073°58'5 6.0
2014-Nov-12 10:24N 41°30' W 074°00'  
Track history (hours):
 
Tides and Currents Weather Stations Pressure Air Temp Water Temp Dewpoint Dewpoint Depression Visibility Wind Speed Wind Dir Waves Ship Positions

Cheyenne

Owner: DMC MARINE, LLC, HILLSIDE, NJ. More information available from US FCC via Universal Licensing System and Coast Guard Vessel Documentation Center.

Last reported at 2014-Nov-22 04:33 UTC. Time now 2014-Nov-22 05:11 UTC.
Position N 40°41' W 074°05'.

Length 29 m; draft 4 m.

Type: Towing. MMSI: 367418570.

Date/timePositionNaut miles runAvg speedWind from/ knotsBaromVisibWave heightAir tempDewpointWater temp
2014-Nov-22 04:33N 40°41' W 074°05'0 0.0
2014-Nov-22 03:33N 40°41' W 074°05'0 0.0
2014-Nov-22 02:33N 40°41' W 074°05'2 2.1
2014-Nov-22 01:33N 40°42' W 074°02'3 3.4
2014-Nov-22 00:33N 40°44' W 073°58'1 1.2
2014-Nov-21 23:33N 40°44' W 073°57'2 2.5
2014-Nov-21 22:33N 40°42' W 073°59'4 4.4
2014-Nov-21 21:33N 40°41' W 074°05'0 0.0
2014-Nov-21 20:33N 40°41' W 074°05'0 0.1
2014-Nov-21 19:33N 40°41' W 074°05'0 0.0
2014-Nov-21 18:33N 40°41' W 074°05'0 0.0
2014-Nov-21 17:33N 40°41' W 074°05'0 0.0
2014-Nov-21 16:33N 40°41' W 074°05'0 0.0
2014-Nov-21 15:33N 40°41' W 074°05'0 0.0
2014-Nov-21 14:33N 40°41' W 074°05'0 0.0
2014-Nov-21 13:33N 40°41' W 074°05'0 0.0
2014-Nov-21 12:33N 40°41' W 074°05'5 4.1
2014-Nov-21 11:27N 40°38' W 074°09'1 1.3
2014-Nov-21 10:33N 40°39' W 074°08'4 3.5
2014-Nov-21 09:33N 40°41' W 074°05'0 0.0
2014-Nov-21 08:29N 40°41' W 074°05'0 0.0
2014-Nov-21 07:33N 40°41' W 074°05'0 0.0
2014-Nov-21 06:32N 40°41' W 074°05'0 0.0
2014-Nov-21 05:29N 40°41' W 074°05'0 0.0
2014-Nov-21 04:14N 40°41' W 074°05'0 0.0
2014-Nov-21 03:33N 40°41' W 074°05'0 0.1
2014-Nov-21 02:33N 40°41' W 074°04'3 2.9
2014-Nov-21 01:33N 40°41' W 074°01'4 3.8
2014-Nov-21 00:33N 40°44' W 073°58'1 0.4
2014-Nov-20 22:33N 40°44' W 073°57'0 0.0
2014-Nov-20 21:33N 40°44' W 073°57'0 0.1
2014-Nov-20 20:25N 40°44' W 073°57'5 5.8
2014-Nov-20 19:33N 40°41' W 074°02'2 2.2
2014-Nov-20 18:32N 40°41' W 074°05'0 0.0
2014-Nov-20 17:33N 40°41' W 074°05'0 0.0
2014-Nov-20 16:31N 40°41' W 074°05'0 0.1
2014-Nov-20 15:25N 40°41' W 074°05'0 0.0
2014-Nov-20 14:08N 40°41' W 074°05'0 0.0
2014-Nov-20 13:05N 40°41' W 074°05'0 0.0
2014-Nov-20 12:33N 40°41' W 074°05'0 0.0
2014-Nov-20 11:33N 40°41' W 074°05'0 0.0
2014-Nov-20 10:33N 40°41' W 074°05'0 0.0
2014-Nov-20 09:33N 40°41' W 074°05'0 0.0
2014-Nov-20 08:31N 40°41' W 074°05'0 0.0
2014-Nov-20 07:08N 40°41' W 074°05'0 0.0
2014-Nov-20 06:31N 40°41' W 074°05'0 0.0
2014-Nov-20 05:29N 40°41' W 074°05'0 0.0
2014-Nov-20 04:24N 40°41' W 074°05'0 0.0
2014-Nov-20 03:33N 40°41' W 074°05'0 0.0
2014-Nov-20 02:33N 40°41' W 074°05'0 0.0
2014-Nov-20 01:32N 40°41' W 074°05'0 0.0
2014-Nov-19 23:33N 40°41' W 074°05'0 0.0
2014-Nov-19 20:33N 40°41' W 074°05'0 0.0
2014-Nov-19 19:33N 40°41' W 074°05'0 0.0
2014-Nov-19 18:33N 40°41' W 074°05'0 0.0
2014-Nov-19 17:33N 40°41' W 074°05'0 0.0
2014-Nov-19 15:31N 40°41' W 074°05'0 0.0
2014-Nov-19 14:33N 40°41' W 074°05'0 0.0
2014-Nov-19 13:33N 40°41' W 074°05'0 0.0
2014-Nov-19 12:33N 40°41' W 074°05'0 0.0
2014-Nov-19 11:33N 40°41' W 074°05'0 0.0
2014-Nov-19 10:11N 40°41' W 074°05'0 0.0
2014-Nov-19 07:30N 40°41' W 074°05'0 0.4
2014-Nov-19 06:33N 40°41' W 074°04'5 0.1
2014-Nov-17 04:33N 40°45' W 074°01'8 7.8
2014-Nov-17 03:30N 40°39' W 074°07'3 1.0
2014-Nov-17 00:24N 40°39' W 074°11'1 1.7
2014-Nov-16 23:30N 40°39' W 074°09'4 3.8
2014-Nov-16 22:33N 40°39' W 074°05'4 4.0
2014-Nov-16 21:33N 40°43' W 074°02'4 3.9
2014-Nov-16 20:33N 40°46' W 074°00'3 0.1
2014-Nov-15 04:27N 40°49' W 073°58'7 8.2
2014-Nov-15 03:33N 40°42' W 074°01'3 2.7
2014-Nov-15 02:33N 40°41' W 074°05'0 0.0
2014-Nov-15 01:33N 40°41' W 074°05'0 0.0
2014-Nov-15 00:31N 40°41' W 074°05'0 0.0
2014-Nov-14 23:32N 40°41' W 074°05'0 0.0
2014-Nov-14 22:32N 40°41' W 074°05'0 0.0
2014-Nov-14 21:33N 40°41' W 074°05'2 1.5
2014-Nov-14 20:33N 40°41' W 074°03'4 4.3
2014-Nov-14 19:33N 40°43' W 073°58'1 1.4
2014-Nov-14 18:33N 40°44' W 073°57'2 1.9
2014-Nov-14 17:33N 40°43' W 073°58'5 5.0
2014-Nov-14 16:33N 40°41' W 074°05'0 0.0
2014-Nov-14 15:32N 40°41' W 074°05'0 0.0
2014-Nov-14 14:33N 40°41' W 074°05'6 3.1
2014-Nov-14 12:32N 40°38' W 074°12'0 0.0
2014-Nov-14 11:28N 40°38' W 074°12'4 4.6
2014-Nov-14 10:33N 40°39' W 074°06'3 2.6
2014-Nov-14 09:33N 40°41' W 074°05'0 0.0
2014-Nov-14 06:28N 40°41' W 074°05'0 0.0
2014-Nov-14 04:33N 40°41' W 074°05'0 0.0
2014-Nov-14 03:30N 40°41' W 074°05'0 0.0
2014-Nov-14 02:33N 40°41' W 074°05'0 0.0
2014-Nov-14 01:33N 40°41' W 074°05'0 0.0
2014-Nov-14 00:33N 40°41' W 074°05'0 0.0
2014-Nov-13 23:33N 40°41' W 074°05'0 0.0
2014-Nov-13 22:33N 40°41' W 074°05'0 0.0
2014-Nov-13 21:30N 40°41' W 074°05'0 0.0
2014-Nov-13 18:23N 40°41' W 074°05'3 4.2
2014-Nov-13 17:33N 40°40' W 074°00'1 0.6
2014-Nov-13 16:33N 40°40' W 073°60'2 2.2
2014-Nov-13 15:33N 40°40' W 074°03'2 1.7
2014-Nov-13 14:33N 40°41' W 074°05'0 0.0
2014-Nov-13 13:33N 40°41' W 074°05'0 0.0
2014-Nov-13 12:33N 40°41' W 074°05'0 0.0
2014-Nov-13 11:33N 40°41' W 074°05'0 0.0
2014-Nov-13 10:33N 40°41' W 074°05'0 0.0
2014-Nov-13 09:33N 40°41' W 074°05'0 0.0
2014-Nov-13 08:33N 40°41' W 074°05'0 0.0
2014-Nov-13 07:33N 40°41' W 074°05'0 0.0
2014-Nov-13 06:33N 40°41' W 074°05'0 0.0
2014-Nov-13 05:33N 40°41' W 074°05'0 0.0
2014-Nov-13 04:33N 40°41' W 074°05'0 0.0
2014-Nov-13 03:33N 40°41' W 074°05'0 0.4
2014-Nov-13 02:33N 40°41' W 074°04'4 3.7
2014-Nov-13 01:27N 40°39' W 074°09'2 1.9
2014-Nov-13 00:33N 40°41' W 074°08'3 3.3
2014-Nov-12 23:33N 40°39' W 074°04'2 1.8
2014-Nov-12 22:33N 40°41' W 074°05'0 0.0
2014-Nov-12 21:33N 40°41' W 074°05'2 1.6
2014-Nov-12 20:33N 40°41' W 074°02'6 6.2
2014-Nov-12 19:33N 40°47' W 073°60'10 3.2
2014-Nov-12 16:31N 40°56' W 073°55'5 4.6
2014-Nov-12 15:28N 41°01' W 073°53'18 5.8
2014-Nov-12 12:23N 41°18' W 073°58'7 6.0
2014-Nov-12 11:12N 41°25' W 073°58'5 6.0
2014-Nov-12 10:24N 41°30' W 074°00'  

Dump ship's entire track history